Temperature
19 18 18 17 17 16 16 16 15 15 14 14 13 13 12 12 12 12 12 11 11 11 11 11 11 11 10 10 10 10 10 10 10 10 11 11 11 12 12 12 12 12 12
19 18 18 17 17 17 16 16 15 15 14 14 13 13 13 12 12 12 11 11 11 11 11 11 11 10 10 10 10 10 10 10 10 10 10 11 11 11 11 12 12 12 12
19 19 18 18 17 17 17 16 15 15 14 14 13 13 13 12 12 12 11 11 11 11 11 11 11 10 10 10 10 10 10 10 10 10 10 10 10 11 11 11 11 11 12
20 19 19 18 18 17 17 16 16 15 15 14 14 13 13 13 12 12 12 11 11 11 11 10 10 10 10 10 10 10 10 10 9 9 9 10 10 10 10 10 11 11 11
20 20 19 19 18 17 17 16 16 15 15 15 14 14 13 13 12 12 12 11 11 11 11 10 10 10 10 10 10 10 9 9 9 9 9 9 10 10 10 10 10 10 11
20 20 19 19 18 18 17 17 16 16 15 15 15 14 14 13 13 12 12 11 11 11 11 10 10 10 10 10 10 9 9 9 9 9 9 9 9 10 10 9 9 10 10
20 20 19 19 18 18 17 17 16 16 16 15 15 15 14 14 13 12 12 11 11 11 11 11 10 10 10 10 10 9 9 9 9 9 9 9 9 9 9 9 9 9 9
20 20 19 19 18 18 17 17 17 16 16 16 15 15 15 14 13 13 12 12 11 11 11 11 10 10 10 10 10 9 9 9 9 9 9 9 9 9 9 9 9 9 9
20 20 20 19 19 18 18 17 17 16 16 15 15 15 15 15 14 13 12 12 12 12 11 11 11 10 10 10 9 9 9 9 9 9 9 9 9 9 8 8 8 8 8
21 21 20 19 19 18 18 17 17 16 16 15 15 15 15 14 14 13 13 12 12 12 12 11 11 10 10 10 9 9 9 9 9 9 9 9 8 8 8 8 8 8 8
20 20 19 19 18 18 17 17 16 16 15 15 15 15 14 14 14 13 13 12 12 12 11 11 11 10 10 10 9 9 9 9 9 8 9 9 8 8 8 8 8 8 8
19 18 18 18 17 17 17 16 16 15 15 15 15 15 14 14 14 13 13 13 12 12 11 11 11 10 10 10 9 9 9 8 8 8 8 9 9 9 9 8 8 8 8
17 17 17 17 16 16 16 15 15 15 15 14 14 14 14 14 14 13 13 13 12 12 11 11 11 10 10 10 9 9 9 8 8 8 8 9 9 9 8 8 8 8 8
16 15 15 15 15 15 14 14 14 14 14 14 14 13 13 13 13 13 13 12 12 12 11 11 10 10 10 9 9 9 9 8 8 8 8 8 8 8 8 8 8 8 8
14 13 13 13 13 13 13 13 13 13 13 13 13 13 13 13 13 13 12 12 12 11 11 11 10 10 10 10 9 9 9 9 8 8 8 8 8 8 8 8 8 8 7
12 12 12 12 12 12 12 12 12 12 12 12 12 12 12 12 12 12 12 12 11 11 10 10 10 10 10 10 9 9 9 9 8 8 8 8 8 8 8 8 8 7 7
11 11 11 11 11 11 11 11 11 11 11 11 12 12 12 12 12 12 12 11 11 11 10 10 10 10 10 10 9 9 9 9 8 8 8 8 8 8 8 8 8 7 7
11 10 10 10 10 10 10 10 10 10 10 10 11 11 11 11 11 11 11 11 11 10 10 10 10 10 10 9 9 9 9 9 8 8 8 8 8 8 8 8 8 8 8
10 10 10 9 9 9 9 9 9 9 9 9 10 10 10 11 11 11 11 11 11 10 10 10 10 10 9 9 9 9 9 8 8 8 8 8 8 7 7 7 7 8 8
10 9 9 9 9 8 8 8 8 8 8 8 9 9 9 10 10 10 10 10 10 10 10 10 10 10 9 9 9 9 8 8 8 8 8 8 8 7 7 7 7 7 8
9 9 8 8 8 8 7 7 7 7 8 8 8 8 8 9 9 9 10 10 10 10 10 9 9 9 9 9 9 8 8 8 8 8 8 7 7 7 7 7 7 7 8
8 8 7 7 7 7 7 6 6 7 7 7 7 7 8 8 9 9 9 9 9 9 9 9 9 9 9 8 8 8 8 8 8 8 7 7 7 7 7 7 7 7 8
7 7 7 6 6 6 6 6 6 6 6 6 6 7 7 8 8 8 8 8 8 9 9 8 8 8 8 8 8 7 7 7 7 7 7 7 7 7 7 7 7 7 7
6 6 5 5 5 5 5 5 5 5 5 5 6 6 7 7 7 7 8 8 8 8 8 8 8 8 8 8 7 7 7 7 7 7 7 7 7 7 7 7 7 7 7
5 5 4 4 4 4 4 4 4 5 5 5 5 6 6 6 7 7 7 7 7 7 7 7 7 7 7 7 7 7 7 7 7 7 7 7 7 7 7 7 7 7 7
4 4 3 3 3 3 3 3 4 4 4 4 5 5 5 6 6 6 6 6 7 7 7 7 7 7 7 7 7 7 7 7 7 7 7 7 7 7 7 7 7 7 7
Wind_Speed
10 9 9 9 8 8 7 8 7 6 6 6 6 6 5 6 5 5 6 6 6 6 6 6 7 6 4 4 4 4 4 4 5 5 4 4 5 6 8 10 11 11 13
11 10 10 9 9 8 8 8 8 7 7 7 7 6 6 6 6 6 7 7 7 7 7 6 7 6 6 5 5 5 5 5 5 7 4 4 5 6 7 7 7 10 12
11 10 10 9 9 9 9 8 8 8 7 7 7 7 8 7 7 7 8 8 8 8 8 8 8 7 7 6 6 6 5 6 5 5 6 4 4 4 5 6 6 5 9
11 11 11 11 11 10 9 9 9 8 8 8 8 8 8 8 8 8 8 8 8 8 8 8 8 8 8 8 7 7 7 6 5 5 5 5 4 5 3 4 5 4 5
11 12 12 11 10 10 9 9 9 9 9 9 8 8 8 7 8 8 8 8 8 7 7 8 8 10 11 9 7 7 7 6 5 5 5 4 5 4 4 3 4 5 5
12 13 12 10 10 10 10 10 9 9 9 8 9 9 9 8 10 12 9 7 7 8 8 8 8 10 11 13 14 13 11 9 8 6 6 7 8 6 5 4 4 3 4
13 12 11 11 11 11 11 10 10 10 9 9 9 9 9 10 14 14 14 9 8 9 9 8 8 9 10 8 10 11 12 14 14 10 9 10 8 8 6 6 6 6 6
12 12 11 11 12 11 10 11 11 9 9 9 10 10 9 11 15 15 15 10 9 10 10 10 10 10 10 10 9 9 9 10 11 10 10 11 11 9 8 8 7 6 6
12 12 12 12 12 11 11 11 10 8 9 8 7 10 10 11 15 16 15 7 8 10 10 10 11 11 14 15 10 10 10 10 12 14 14 14 15 15 10 5 5 5 6
13 13 11 11 11 12 12 11 8 8 10 9 9 9 10 11 14 16 15 7 8 9 8 9 13 14 15 14 10 9 10 10 8 8 9 10 10 11 13 10 8 7 6
9 8 8 10 11 11 10 8 8 8 8 9 10 10 10 13 14 17 16 9 9 9 8 8 9 14 15 15 12 9 12 10 7 7 7 7 7 7 7 8 8 9 9
3 4 6 7 8 8 8 8 7 8 9 9 9 10 9 11 14 16 18 17 14 10 10 9 10 14 15 14 10 12 15 11 6 6 7 8 8 8 8 8 9 10 11
3 2 3 3 4 4 6 8 7 7 8 9 9 10 11 9 10 18 19 19 19 13 11 13 13 14 13 11 14 15 12 7 6 7 9 10 9 9 7 6 7 8 9
6 5 5 4 5 4 4 5 6 7 8 9 9 11 11 9 9 9 9 10 12 12 10 11 13 13 11 11 11 10 8 8 8 9 8 9 7 6 7 7 6 6 6
6 6 6 5 6 6 6 7 8 9 10 11 11 11 11 12 14 16 11 9 8 9 6 4 4 5 6 7 7 8 7 7 9 9 9 9 8 8 8 7 6 6 6
5 5 5 5 6 6 7 9 12 14 17 19 19 17 14 16 17 17 18 17 15 12 7 5 7 8 9 9 8 8 7 9 9 9 9 9 9 9 9 7 6 7 8
5 5 5 6 6 7 7 8 10 12 15 17 18 18 18 18 18 17 16 14 12 13 7 8 9 9 9 9 9 9 9 9 8 8 9 9 9 9 8 8 8 8 8
5 6 7 6 7 7 8 8 8 9 11 10 12 15 16 17 16 15 12 8 6 8 8 10 10 10 9 9 9 9 9 8 7 8 9 9 9 8 9 9 9 9 9
5 5 6 6 7 7 8 8 8 10 9 10 9 10 13 12 11 11 10 8 9 10 11 11 11 10 10 10 9 9 9 9 8 7 7 8 8 8 9 9 9 12 10
6 10 9 7 7 8 8 9 9 10 10 10 9 9 8 5 4 6 8 8 9 10 10 11 10 10 9 9 9 8 8 8 8 8 8 8 8 8 9 10 9 9 9
6 8 11 9 7 8 8 9 9 10 10 10 10 11 12 8 7 8 7 8 9 10 10 9 9 8 8 7 7 7 9 8 8 8 8 7 7 8 8 8 8 9 8
6 7 7 7 8 8 9 9 9 9 10 10 10 10 12 7 6 6 6 6 8 8 7 7 7 7 7 7 6 7 7 8 8 7 7 8 7 8 8 8 8 8 7
6 7 7 7 8 10 10 9 9 10 10 10 9 9 8 6 6 5 5 5 4 4 4 4 5 5 5 5 5 6 7 8 7 7 7 8 8 7 7 8 9 9 9
7 7 8 8 8 9 10 10 10 11 11 10 9 8 7 6 5 4 3 2 2 2 2 2 3 4 5 4 4 5 5 6 6 6 8 8 8 7 7 8 8 9 9
7 7 8 8 9 9 10 10 11 11 10 9 8 7 6 5 5 3 2 1 1 1 2 2 2 3 5 6 6 5 5 7 6 6 6 7 8 9 8 9 8 8 9
7 7 8 8 8 9 9 10 11 11 10 9 8 7 6 5 5 4 3 3 3 3 2 2 3 4 5 5 6 5 6 7 7 7 6 6 8 8 8 8 10 9 9
Wind_Direction
179 179 175 184 187 185 190 200 203 206 205 204 209 215 223 232 234 228 233 237 238 249 252 245 250 250 249 252 248 240 229 206 250 273 262 281 293 296 302 297 290 279 273
180 177 180 185 185 188 199 208 207 211 212 210 211 216 226 230 230 228 236 237 232 239 245 244 251 252 248 247 244 244 244 230 232 269 280 283 283 288 290 293 292 286 274
178 179 183 187 189 197 205 208 208 208 211 213 211 218 226 229 230 230 229 234 233 233 235 235 242 243 250 248 243 244 246 253 231 245 269 268 275 285 300 298 294 290 288
181 183 189 196 198 203 207 208 208 206 208 213 217 221 226 229 231 234 233 235 237 237 234 232 234 233 239 244 247 243 242 247 246 247 261 270 272 281 289 295 306 305 299
184 191 200 202 201 203 206 209 210 210 214 214 218 225 227 228 233 233 233 235 234 237 239 238 239 240 240 239 242 237 234 235 239 242 255 267 271 279 275 275 288 299 297
190 200 201 198 201 205 208 209 211 216 219 216 218 223 228 234 236 230 219 224 226 229 239 244 249 253 255 256 256 251 232 228 231 235 243 246 256 253 253 258 267 295 299
196 200 197 196 202 208 210 208 214 218 218 221 225 224 229 236 239 238 231 222 226 231 235 240 252 254 251 251 262 268 259 246 232 225 233 242 246 242 241 255 250 244 249
197 200 198 197 204 207 207 212 217 215 216 222 226 226 230 238 237 238 239 231 230 235 234 234 239 251 255 247 251 258 257 255 245 236 231 239 240 238 230 237 246 254 259
202 206 204 200 204 205 210 217 217 214 220 221 222 225 231 241 240 240 238 229 234 241 240 237 234 243 252 251 248 251 259 263 258 244 235 237 240 241 234 232 243 248 268
212 212 206 201 204 209 215 218 216 215 224 225 231 229 233 243 245 241 234 223 235 246 248 243 239 241 249 252 237 235 247 256 258 264 253 252 249 250 244 227 227 236 246
226 216 210 209 212 215 217 218 216 218 225 230 238 241 239 243 250 246 235 218 227 238 246 248 243 240 243 243 232 224 238 244 248 248 253 256 254 247 244 232 223 224 230
229 223 227 227 227 225 221 224 221 220 228 238 244 254 252 248 247 250 241 228 221 224 237 241 240 240 239 239 236 235 243 250 245 247 252 254 252 251 247 240 233 230 231
18 330 292 279 262 246 229 231 232 228 233 242 243 252 260 254 248 245 244 237 226 224 235 234 235 239 240 244 245 244 245 239 232 242 250 253 249 246 244 246 249 243 242
24 3 347 330 308 289 265 248 243 242 243 246 247 252 257 257 252 246 241 239 232 227 234 238 239 245 244 243 249 252 240 230 227 238 245 252 249 242 243 239 245 247 251
17 4 349 334 316 305 291 269 258 251 249 249 253 252 252 256 252 235 223 223 216 215 201 213 228 236 242 245 248 247 241 233 234 238 242 249 249 247 249 238 234 234 237
8 348 334 325 316 309 304 302 283 271 270 261 255 254 254 249 253 240 228 222 212 190 175 213 229 232 239 244 247 249 242 237 236 235 236 240 244 245 249 242 229 231 240
349 328 320 316 313 309 305 302 304 302 291 281 271 264 255 255 253 245 234 222 206 176 192 225 232 235 238 240 241 243 247 243 236 233 236 238 239 241 242 243 238 235 239
328 320 318 308 305 303 301 299 297 300 305 301 292 280 269 260 254 246 229 193 195 196 218 228 234 236 237 238 240 242 246 247 238 236 237 238 236 238 241 242 238 236 238
310 305 303 301 300 299 299 298 297 297 295 293 294 294 284 273 258 243 199 197 214 220 224 229 233 235 237 237 239 239 241 243 240 234 235 236 236 235 241 242 239 236 233
306 306 311 305 303 305 305 303 302 300 297 293 290 289 289 276 261 242 214 215 223 230 230 231 233 233 234 236 236 236 238 240 239 238 239 240 239 236 240 242 238 235 232
304 308 312 311 303 301 302 302 301 300 298 295 292 290 283 274 260 251 236 225 226 229 232 233 234 233 232 232 232 234 237 242 240 239 239 241 241 240 239 239 239 236 232
306 301 302 303 303 302 303 301 300 300 300 300 299 297 291 280 263 250 240 239 236 230 227 225 230 231 230 228 229 233 240 244 243 239 241 243 242 241 240 239 238 236 231
310 310 311 311 312 312 311 308 307 304 301 301 304 302 296 283 272 265 258 256 248 232 224 220 228 239 238 232 230 231 239 244 242 240 244 247 244 242 238 237 237 236 234
318 319 319 319 319 318 315 312 310 306 302 302 303 302 298 293 287 278 268 261 251 242 220 209 222 236 244 249 246 240 241 247 248 246 247 249 248 245 241 241 239 236 235
328 328 327 324 323 322 319 318 317 315 312 312 312 311 313 314 311 304 295 287 291 301 290 265 249 255 259 259 260 257 259 261 259 258 255 250 250 248 245 244 242 239 233
336 334 331 328 326 325 325 326 327 327 324 323 324 327 330 332 336 338 340 341 335 326 306 290 281 282 283 279 276 274 272 270 265 258 252 249 248 248 246 246 243 237 234
Height
1529 1530 1530 1531 1531 1531 1531 1531 1532 1532 1531 1531 1531 1531 1530 1529 1529 1528 1527 1527 1526 1525 1524 1524 1523 1522 1521 1521 1521 1520 1520 1519 1516 1514 1514 1514 1513 1513 1512 1512 1512 1511 1511
1526 1526 1527 1528 1528 1528 1528 1528 1529 1528 1528 1528 1527 1527 1526 1526 1525 1524 1523 1523 1522 1521 1520 1519 1519 1518 1517 1517 1516 1515 1515 1514 1512 1509 1509 1509 1508 1508 1507 1507 1506 1506 1505
1522 1523 1524 1524 1524 1525 1525 1525 1525 1525 1525 1524 1524 1523 1522 1521 1521 1520 1519 1518 1517 1516 1516 1515 1514 1513 1512 1512 1511 1510 1509 1509 1508 1506 1504 1504 1503 1503 1502 1501 1501 1500 1500
1518 1519 1519 1520 1521 1521 1521 1521 1521 1521 1520 1520 1519 1519 1518 1517 1516 1515 1514 1513 1512 1512 1511 1510 1509 1508 1507 1506 1505 1504 1504 1503 1502 1501 1499 1499 1498 1498 1497 1496 1495 1494 1494
1513 1514 1515 1516 1517 1517 1517 1517 1517 1516 1516 1516 1515 1514 1513 1512 1511 1510 1509 1508 1507 1507 1506 1505 1504 1503 1501 1500 1499 1498 1498 1497 1496 1496 1494 1494 1493 1492 1492 1491 1490 1489 1488
1508 1509 1510 1511 1512 1512 1512 1513 1512 1512 1512 1511 1510 1509 1508 1507 1506 1505 1504 1503 1502 1501 1500 1499 1498 1497 1495 1494 1493 1492 1492 1491 1490 1490 1489 1488 1487 1487 1487 1486 1485 1483 1482
1503 1504 1505 1506 1507 1507 1508 1508 1507 1507 1507 1506 1505 1504 1503 1502 1501 1500 1498 1497 1496 1495 1494 1493 1492 1490 1489 1488 1487 1486 1486 1485 1485 1484 1483 1482 1481 1482 1481 1480 1479 1478 1477
1498 1499 1500 1501 1501 1502 1502 1502 1502 1502 1501 1500 1500 1499 1497 1496 1495 1494 1493 1491 1490 1489 1487 1486 1485 1484 1483 1482 1481 1480 1479 1479 1479 1478 1477 1476 1475 1475 1475 1474 1473 1471 1470
1492 1493 1494 1494 1495 1495 1495 1495 1496 1496 1495 1495 1494 1493 1491 1490 1489 1488 1486 1485 1483 1482 1481 1480 1479 1477 1477 1476 1475 1473 1472 1472 1472 1471 1470 1469 1468 1468 1468 1468 1466 1465 1463
1487 1487 1488 1489 1489 1489 1489 1489 1490 1490 1489 1488 1487 1486 1485 1484 1483 1481 1480 1478 1477 1475 1474 1473 1472 1471 1470 1469 1468 1467 1465 1465 1465 1464 1463 1462 1461 1461 1461 1461 1460 1459 1457
1482 1483 1483 1483 1483 1483 1484 1484 1483 1483 1482 1481 1480 1479 1478 1477 1475 1474 1473 1471 1470 1468 1467 1466 1466 1465 1464 1463 1462 1460 1459 1458 1457 1456 1455 1454 1453 1453 1453 1453 1453 1452 1451
1478 1478 1478 1478 1478 1478 1478 1477 1477 1476 1475 1474 1472 1471 1470 1469 1468 1466 1465 1464 1462 1461 1459 1459 1458 1458 1457 1455 1454 1453 1452 1451 1449 1448 1447 1445 1445 1445 1445 1445 1444 1444 1443
1474 1473 1473 1473 1473 1472 1472 1471 1470 1469 1467 1466 1464 1462 1461 1460 1459 1458 1457 1456 1454 1453 1451 1451 1451 1450 1449 1448 1447 1446 1445 1443 1442 1440 1439 1438 1437 1437 1437 1436 1436 1436 1435
1472 1471 1470 1469 1468 1467 1465 1464 1463 1461 1459 1457 1456 1454 1452 1451 1450 1449 1448 1447 1446 1444 1443 1443 1442 1442 1440 1439 1438 1437 1436 1435 1434 1432 1431 1430 1430 1429 1429 1429 1428 1428 1428
1470 1468 1466 1464 1462 1460 1459 1457 1455 1453 1452 1450 1447 1445 1443 1440 1440 1440 1439 1438 1437 1436 1436 1435 1434 1433 1432 1431 1430 1428 1427 1426 1425 1424 1424 1423 1422 1422 1421 1421 1421 1421 1420
1467 1465 1462 1460 1458 1455 1452 1449 1447 1445 1443 1440 1438 1436 1433 1431 1430 1430 1429 1428 1428 1428 1427 1426 1425 1424 1423 1422 1421 1420 1419 1418 1417 1417 1416 1415 1414 1414 1413 1414 1414 1414 1413
1464 1462 1459 1456 1453 1450 1446 1442 1438 1435 1433 1431 1428 1426 1424 1422 1420 1420 1419 1418 1418 1418 1417 1416 1416 1416 1415 1414 1413 1412 1411 1411 1410 1409 1408 1408 1407 1406 1406 1405 1405 1406 1405
1461 1458 1455 1451 1448 1444 1441 1437 1433 1428 1424 1421 1419 1416 1414 1412 1411 1410 1409 1408 1407 1407 1407 1407 1407 1407 1406 1406 1405 1404 1403 1403 1402 1401 1401 1400 1399 1399 1398 1397 1397 1397 1398
1457 1454 1450 1446 1442 1439 1435 1431 1427 1422 1417 1413 1410 1407 1405 1403 1401 1401 1399 1398 1398 1398 1398 1398 1398 1398 1398 1397 1397 1396 1396 1395 1394 1394 1393 1392 1392 1391 1390 1389 1389 1389 1390
1453 1449 1445 1441 1436 1432 1428 1424 1419 1414 1410 1405 1402 1399 1397 1394 1392 1391 1390 1390 1389 1389 1389 1389 1389 1389 1389 1389 1389 1388 1388 1387 1386 1386 1385 1384 1384 1383 1382 1382 1382 1382 1382
1447 1443 1439 1434 1430 1425 1421 1416 1412 1407 1402 1398 1394 1391 1389 1386 1384 1383 1382 1381 1381 1380 1381 1381 1381 1381 1381 1381 1381 1381 1380 1379 1378 1378 1377 1377 1376 1375 1375 1375 1375 1375 1375
1442 1437 1433 1428 1423 1418 1414 1409 1405 1400 1395 1391 1387 1383 1380 1378 1375 1374 1374 1374 1373 1373 1374 1374 1374 1374 1374 1374 1374 1373 1372 1372 1371 1370 1369 1369 1368 1368 1367 1367 1367 1368 1368
1436 1431 1426 1421 1417 1412 1407 1402 1398 1393 1388 1384 1379 1376 1372 1370 1369 1367 1367 1367 1367 1366 1367 1367 1367 1368 1368 1367 1367 1366 1365 1364 1364 1363 1362 1361 1360 1360 1360 1360 1360 1361 1361
1430 1425 1420 1415 1410 1405 1400 1395 1391 1386 1381 1377 1373 1369 1366 1364 1363 1362 1361 1361 1361 1361 1361 1361 1362 1362 1362 1361 1360 1360 1359 1357 1356 1356 1355 1354 1353 1353 1353 1353 1353 1354 1354
1424 1420 1415 1410 1405 1400 1395 1390 1385 1380 1376 1371 1368 1364 1362 1360 1358 1357 1357 1357 1357 1357 1357 1357 1357 1357 1356 1356 1354 1353 1352 1351 1350 1349 1348 1347 1346 1345 1345 1345 1346 1346 1348
1419 1415 1410 1405 1401 1396 1391 1386 1381 1376 1372 1368 1364 1361 1359 1357 1355 1354 1354 1354 1353 1353 1353 1353 1353 1352 1351 1350 1349 1347 1346 1344 1343 1342 1341 1340 1339 1338 1338 1338 1339 1339 1341